[[{"header":{"parameterUnit":"m.s-1","parameterCategory":1,"la1":30.2991,"la2":30.254,"lo1":-89.0895,"lo2":-89.0444,"dy":0.0017,"dx":0.0017,"nx":28,"ny":28,"refTime":"2025-11-16T09:00:00:Z","depth":0,"parameterNumber":2,"parameterNumberName":"U-component_of_WINDS"},"data":[0,0,0,0,0,0,0,0,0,0,0,0,0,0,0,0,0,0,0,0,0,0,0,0,0,0,0,0,0,0,0,0,0,0,0,0,0,0,0,0,0,0,0,0,0,0,0,0,0,0,0,0,0,0,0,0,0,0,-1.2753,-1.2752,0,-1.271,-1.271,-1.2709,-1.2647,-1.2646,-1.2644,-1.2643,-1.2601,-1.2601,-1.2601,0,0,0,0,0,0,0,0,0,0,0,0,0,-1.2781,-1.2781,-1.2753,-1.2752,-1.2752,-1.271,-1.271,-1.2709,-1.2647,-1.2646,-1.2644,-1.2643,-1.2601,-1.2601,-1.2601,0,0,0,0,0,0,0,0,0,0,0,0,0,-1.2757,-1.2781,-1.2753,-1.2716,-1.2712,-1.271,-1.271,-1.2709,-1.2647,-1.2645,-1.2644,-1.2642,-1.2601,-1.2601,-1.2601,-1.2632,0,0,-1.26,-1.26,0,0,0,0,0,0,0,0,-1.2759,-1.2756,-1.2722,-1.2718,-1.2714,-1.2682,-1.2704,-1.2683,-1.2648,-1.2672,-1.2643,-1.2641,-1.2629,-1.2627,-1.2622,-1.263,-1.2629,-1.26,-1.26,-1.26,-1.26,0,0,0,0,0,0,0,-1.276,-1.2758,-1.2736,-1.2721,-1.2717,-1.2702,-1.2696,-1.27,-1.266,-1.267,-1.2665,-1.2661,-1.2627,-1.2623,-1.2621,-1.2628,-1.26,-1.26,-1.26,-1.26,-1.2661,-1.2662,0,0,0,0,0,0,-1.2767,-1.2759,-1.2737,-1.2735,-1.2733,-1.2702,-1.2696,-1.2694,-1.266,-1.2653,-1.2662,-1.2658,-1.2624,-1.2621,-1.2619,-1.2654,-1.26,-1.26,-1.26,-1.2659,-1.2661,-1.2663,0,0,0,0,0,0,-1.2768,-1.2766,-1.2739,-1.2746,-1.2741,-1.2704,-1.2701,-1.2694,-1.269,-1.2654,-1.2647,-1.2665,-1.2622,-1.2619,-1.263,-1.2652,-1.26,-1.2599,-1.2657,-1.266,-1.2662,-1.2725,0,0,0,0,0,0,-1.2769,-1.2767,-1.2778,-1.2746,-1.2741,-1.275,-1.2703,-1.2694,-1.2689,-1.2684,-1.2655,-1.2649,-1.2621,-1.263,-1.263,-1.2651,-1.2599,-1.2655,-1.2658,-1.2661,-1.2721,-1.2729,-1.2737,0,0,0,0,0,-1.2771,-1.2798,-1.2779,-1.2777,-1.2754,-1.2751,-1.2748,-1.2715,-1.2692,-1.2703,-1.268,-1.265,-1.265,-1.2632,-1.263,-1.2652,-1.2653,-1.2657,-1.2661,-1.2717,-1.2728,-1.2737,0,0,0,0,0,0,-1.2833,-1.2793,-1.2772,-1.2789,-1.2774,-1.2741,-1.2754,-1.2727,-1.2719,-1.2714,-1.2673,-1.2668,-1.2683,-1.2669,-1.2649,-1.2681,-1.2647,-1.2651,-1.269,-1.27,-1.2708,-1.2711,-1.2599,0,0,0,0,0,-1.2849,-1.2849,-1.2814,-1.2833,-1.2827,-1.2792,-1.2789,-1.2765,-1.2748,-1.2742,-1.272,-1.2705,-1.2701,-1.27,-1.2695,-1.2719,-1.2712,-1.2733,-1.2741,-1.2748,-1.2751,-1.2763,-1.2772,-1.2676,-1.2676,-1.2676,0,0,-1.2881,-1.2859,-1.2862,-1.2845,-1.2831,-1.2833,-1.2787,-1.2791,-1.2792,-1.2742,-1.275,-1.2734,-1.2715,-1.2732,-1.2739,-1.2721,-1.2777,-1.2753,-1.2758,-1.2758,-1.2768,-1.2777,-1.2786,-1.2678,-1.2678,-1.2677,0,0,-1.2941,-1.2925,-1.2939,-1.2926,-1.2904,-1.2881,-1.2885,-1.2855,-1.2843,-1.285,-1.2813,-1.2814,-1.2809,-1.2797,-1.279,-1.2847,-1.2819,-1.2846,-1.2888,-1.29,-1.2908,-1.2915,-1.2935,-1.2943,-1.285,-1.285,-1.2851,0,-1.2985,-1.2986,-1.295,-1.2956,-1.295,-1.2905,-1.2919,-1.2908,-1.2886,-1.2883,-1.2863,-1.2856,-1.284,-1.2854,-1.2868,-1.2864,-1.2867,-1.2849,-1.291,-1.2916,-1.2922,-1.2941,-1.2948,-1.2854,-1.2854,-1.2853,-1.2853,0,-1.304,-1.3041,-1.3055,-1.3035,-1.3031,-1.3041,-1.3007,-1.3007,-1.2984,-1.2963,-1.2972,-1.2951,-1.2941,-1.2942,-1.292,-1.2954,-1.2943,-1.2917,-1.2881,-1.2935,-1.2952,-1.2959,-1.2859,-1.2858,-1.2857,-1.2856,0,0,-1.3138,-1.3098,-1.3104,-1.3094,-1.3068,-1.3068,-1.3077,-1.3067,-1.3068,-1.3055,-1.3061,-1.3058,-1.3034,-1.3027,-1.3002,-1.3013,-1.306,-1.2986,-1.2985,-1.3,-1.3096,-1.3116,-1.3125,-1.3041,-1.3042,-1.3043,-1.3098,0,-1.3192,-1.3204,-1.3173,-1.3193,-1.3194,-1.3151,-1.3159,-1.3144,-1.3125,-1.3124,-1.3103,-1.3101,-1.307,-1.3065,-1.3074,-1.3052,-1.3078,-1.3048,-1.3047,-1.3047,-1.3053,-1.3133,-1.3154,-1.3206,-1.3104,-1.3105,-1.3106,0,-1.3258,-1.3248,-1.3268,-1.3241,-1.324,-1.3248,-1.3236,-1.3235,-1.3218,-1.3203,-1.3195,-1.3167,-1.3174,-1.314,-1.315,-1.313,-1.3127,-1.3117,-1.3118,-1.3117,-1.308,-1.3134,-1.3222,-1.323,-1.3116,-1.3115,-1.3115,0,-1.3327,-1.3319,-1.333,-1.3323,-1.3292,-1.3298,-1.3285,-1.3266,-1.3262,-1.3253,-1.325,-1.3241,-1.3237,-1.3231,-1.3201,-1.318,-1.3215,-1.3178,-1.3203,-1.3204,-1.3212,-1.3212,-1.3301,-1.3211,-1.3211,-1.3211,-1.3211,0,-1.3392,-1.3406,-1.3361,-1.3367,-1.3382,-1.3346,-1.3362,-1.3345,-1.3328,-1.3331,-1.3295,-1.3299,-1.3259,-1.3259,-1.3236,-1.3247,-1.3246,-1.3234,-1.3228,-1.3237,-1.3239,-1.3235,-1.3231,-1.3213,-1.3213,-1.3212,-1.3212,0,-1.3471,-1.3442,-1.3451,-1.3421,-1.3413,-1.3426,-1.34,-1.3405,-1.3384,-1.3389,-1.3388,-1.3355,-1.3353,-1.3322,-1.3314,-1.3298,-1.3319,-1.3306,-1.3325,-1.3321,-1.3347,-1.3345,-1.3437,-1.3447,-1.3351,-1.3352,-1.3353,0,-1.3514,-1.3524,-1.3495,-1.3494,-1.3483,-1.3483,-1.3478,-1.3444,-1.3441,-1.3422,-1.343,-1.3425,-1.3419,-1.3417,-1.3393,-1.3387,-1.3373,-1.3406,-1.3372,-1.3381,-1.3373,-1.3373,-1.3374,-1.3413,-1.3414,-1.3415,-1.3416,0,-1.3594,-1.3579,-1.3574,-1.3565,-1.3561,-1.3552,-1.3541,-1.3542,-1.3504,-1.3503,-1.35,-1.3496,-1.3487,-1.3483,-1.3472,-1.3459,-1.3432,-1.3427,-1.3432,-1.3442,-1.3452,-1.3447,-1.3345,-1.3425,-1.3424,-1.3423,-1.3423,-1.3422,-1.3656,-1.3663,-1.3644,-1.364,-1.3628,-1.3618,-1.3622,-1.3601,-1.3598,-1.3588,-1.3568,-1.3569,-1.3551,-1.3534,-1.3524,-1.3524,-1.3507,-1.3515,-1.3517,-1.3519,-1.3525,-1.3453,-1.3522,-1.3522,-1.3521,-1.3521,-1.3521,0,-1.3734,-1.372,-1.3717,-1.3702,-1.3699,-1.3673,-1.3659,-1.3659,-1.366,-1.3646,-1.3641,-1.3638,-1.3634,-1.3609,-1.3602,-1.3607,-1.3594,-1.3607,-1.3606,-1.3603,-1.354,-1.3536,-1.3617,-1.3617,-1.3617,-1.3617,-1.3617,-1.3617,-1.3774,-1.3785,-1.3767,-1.3772,-1.3757,-1.3757,-1.3751,-1.3743,-1.3731,-1.373,-1.3726,-1.371,-1.3692,-1.3683,-1.3678,-1.3671,-1.3671,-1.3687,-1.3676,-1.3617,-1.3608,-1.3599,-1.3595,-1.3687,-1.3687,-1.3739,-1.374,-1.374]},{"header":{"parameterUnit":"m.s-1","parameterCategory":1,"la1":30.2991,"la2":30.254,"lo1":-89.0895,"lo2":-89.0444,"dy":0.0017,"dx":0.0017,"nx":28,"ny":28,"refTime":"2025-11-16T09:00:00:Z","depth":0,"parameterNumber":3,"parameterNumberName":"V-component_of_WINDS"},"data":[0,0,0,0,0,0,0,0,0,0,0,0,0,0,0,0,0,0,0,0,0,0,0,0,0,0,0,0,0,0,0,0,0,0,0,0,0,0,0,0,0,0,0,0,0,0,0,0,0,0,0,0,0,0,0,0,0,0,1.9256,1.9256,0,1.9214,1.9214,1.9213,1.9166,1.9166,1.9165,1.9164,1.9121,1.912,1.912,0,0,0,0,0,0,0,0,0,0,0,0,0,1.9296,1.9296,1.9256,1.9256,1.9255,1.9214,1.9214,1.9213,1.9166,1.9166,1.9165,1.9164,1.9121,1.9121,1.912,0,0,0,0,0,0,0,0,0,0,0,0,0,1.9269,1.9296,1.9256,1.9227,1.9224,1.9214,1.9214,1.9213,1.9167,1.9166,1.9165,1.9164,1.9121,1.9121,1.912,1.9136,0,0,1.9117,1.9117,0,0,0,0,0,0,0,0,1.9271,1.9268,1.9232,1.9229,1.9226,1.9194,1.9212,1.9187,1.9167,1.9188,1.9164,1.9163,1.9146,1.9143,1.9138,1.9134,1.9132,1.9117,1.9117,1.9117,1.9116,0,0,0,0,0,0,0,1.9273,1.9269,1.9239,1.9231,1.9228,1.9216,1.9211,1.9207,1.9174,1.9186,1.9183,1.9179,1.9144,1.9139,1.9136,1.9131,1.9117,1.9117,1.9116,1.9116,1.9139,1.914,0,0,0,0,0,0,1.9279,1.9271,1.9241,1.9238,1.9246,1.9216,1.921,1.9205,1.9173,1.9168,1.918,1.9177,1.914,1.9137,1.9135,1.9152,1.9117,1.9116,1.9115,1.9138,1.9139,1.914,0,0,0,0,0,0,1.928,1.9277,1.9243,1.9254,1.9248,1.9216,1.9211,1.9205,1.9199,1.9168,1.9162,1.918,1.9139,1.9136,1.9136,1.9149,1.9116,1.9115,1.9136,1.9138,1.914,1.9186,0,0,0,0,0,0,1.9281,1.9277,1.9283,1.9254,1.9248,1.9245,1.9212,1.9205,1.9198,1.9194,1.9167,1.9161,1.9138,1.9137,1.9135,1.9148,1.9114,1.9135,1.9137,1.9139,1.9183,1.9189,1.9194,0,0,0,0,0,1.9283,1.9297,1.9283,1.928,1.9254,1.9245,1.9242,1.9215,1.9199,1.9205,1.9185,1.9162,1.9148,1.9138,1.9135,1.9148,1.9134,1.9137,1.9139,1.918,1.9187,1.9193,0,0,0,0,0,0,1.9328,1.9293,1.9277,1.9283,1.9268,1.9238,1.9244,1.9224,1.9212,1.9209,1.9176,1.917,1.9175,1.9161,1.915,1.9162,1.9138,1.914,1.917,1.9177,1.9182,1.9186,1.9114,0,0,0,0,0,1.9339,1.9334,1.9304,1.9312,1.9305,1.9276,1.9271,1.9252,1.9235,1.9228,1.9208,1.9192,1.9184,1.918,1.9171,1.918,1.9174,1.9188,1.9193,1.9198,1.92,1.9205,1.9211,1.9148,1.9148,1.9148,0,0,1.9361,1.9341,1.934,1.932,1.9306,1.9303,1.9271,1.9268,1.9265,1.9227,1.9227,1.9212,1.9192,1.9197,1.9199,1.9186,1.9216,1.9201,1.9205,1.9204,1.9208,1.9214,1.9219,1.915,1.9149,1.9149,0,0,1.9399,1.9383,1.9388,1.9375,1.9354,1.9335,1.9336,1.931,1.9298,1.9297,1.9269,1.9265,1.9252,1.9239,1.9231,1.9266,1.9245,1.9264,1.9292,1.9298,1.9302,1.9307,1.932,1.9325,1.9266,1.9266,1.9266,0,1.9428,1.9422,1.9393,1.9393,1.9385,1.9351,1.9357,1.9345,1.9323,1.9318,1.9304,1.9288,1.9272,1.9274,1.9283,1.9277,1.9278,1.9267,1.9304,1.9308,1.9312,1.9324,1.9329,1.9269,1.9268,1.9268,1.9268,0,1.946,1.9456,1.9463,1.9442,1.9435,1.9438,1.941,1.9406,1.9388,1.937,1.937,1.935,1.9337,1.9336,1.9318,1.9336,1.9329,1.931,1.9286,1.9321,1.9331,1.9336,1.9272,1.9271,1.9271,1.927,0,0,1.9525,1.9489,1.9492,1.9483,1.9458,1.9455,1.9456,1.9443,1.9441,1.9427,1.9427,1.9417,1.94,1.9391,1.9371,1.9376,1.9406,1.9356,1.9355,1.9367,1.9425,1.944,1.9446,1.9391,1.9392,1.9393,1.9427,0,1.9559,1.9559,1.9534,1.9541,1.9537,1.9505,1.9506,1.9492,1.9475,1.947,1.9452,1.9446,1.9423,1.9417,1.942,1.9401,1.9417,1.9398,1.9392,1.9392,1.9398,1.9451,1.9467,1.95,1.9431,1.9432,1.9432,0,1.9599,1.9588,1.9595,1.957,1.9568,1.9569,1.9556,1.9551,1.9534,1.9522,1.9512,1.949,1.9489,1.9467,1.9466,1.9454,1.945,1.944,1.9441,1.944,1.9415,1.9452,1.951,1.9516,1.9439,1.9438,1.9438,0,1.9647,1.9633,1.9636,1.9628,1.96,1.9602,1.959,1.9572,1.9566,1.9554,1.9551,1.9539,1.9533,1.9525,1.95,1.9486,1.9503,1.9478,1.9493,1.9494,1.9499,1.9499,1.9558,1.9495,1.9495,1.9495,1.9495,0,1.9688,1.9693,1.9657,1.9658,1.9664,1.9635,1.9642,1.9627,1.9611,1.9609,1.9581,1.958,1.9547,1.9543,1.9524,1.9527,1.9524,1.9514,1.9509,1.9517,1.9519,1.9514,1.9512,1.9497,1.9496,1.9496,1.9496,0,1.9742,1.9717,1.9718,1.9692,1.9685,1.9691,1.9668,1.9668,1.965,1.9649,1.9647,1.9619,1.9612,1.9587,1.9574,1.9561,1.9571,1.9561,1.9577,1.9574,1.9591,1.959,1.965,1.9657,1.959,1.959,1.9591,0,1.977,1.9774,1.9747,1.9745,1.9734,1.973,1.9724,1.9696,1.9691,1.9672,1.9675,1.9666,1.9658,1.9649,1.9628,1.9618,1.9608,1.9629,1.9606,1.9614,1.9609,1.9609,1.961,1.9635,1.9635,1.9636,1.9637,0,1.9822,1.981,1.9803,1.9792,1.9786,1.9776,1.9764,1.9764,1.9732,1.9728,1.9722,1.9715,1.9703,1.9695,1.9682,1.967,1.9648,1.9644,1.9647,1.9656,1.9666,1.9661,1.9591,1.9643,1.9642,1.9642,1.9642,1.9641,1.9865,1.9867,1.9849,1.9842,1.9831,1.9821,1.982,1.9803,1.9796,1.9784,1.9768,1.9763,1.9747,1.9727,1.9717,1.9713,1.9701,1.9706,1.9707,1.9709,1.9713,1.9666,1.9711,1.971,1.971,1.971,1.971,0,1.9916,1.9904,1.9898,1.9883,1.9877,1.9858,1.9844,1.9841,1.9838,1.9824,1.9816,1.9809,1.9801,1.978,1.977,1.9771,1.9762,1.977,1.977,1.9768,1.9724,1.9722,1.9778,1.9778,1.9778,1.9778,1.9778,1.9778,1.9943,1.9946,1.9932,1.9929,1.9916,1.9912,1.9906,1.9896,1.9885,1.9879,1.9872,1.9858,1.9841,1.983,1.9823,1.9817,1.9815,1.9827,1.9817,1.9777,1.9771,1.9764,1.9763,1.9826,1.9826,1.9862,1.9862,1.9862]}]]